EW6304 Weather Reports


Display with metric or nautical units.
time (UTC)temp
F
wind
direction
speed
MPH
gust
MPH
rain 1hr
in
rain 24hr
in
rain mn
in
humidity
%
barometer
mb
20240723181059 74 98 0.0 0.0 0.00 0.08 0.08 87 1017.0
20240723180600 74 105 0.0 0.0 0.00 0.08 0.08 87 1016.8
20240723180058 74 90 0.0 0.0 0.00 0.08 0.08 88 1016.7
20240723175559 74 151 0.0 0.0 0.00 0.08 0.08 88 1016.7
20240723175059 74 92 0.0 0.0 0.00 0.08 0.08 88 1016.6
20240723174559 74 123 0.0 0.0 0.00 0.08 0.08 89 1016.5
20240723174104 73 130 0.0 0.0 0.00 0.08 0.08 89 1016.6
20240723174058 74 122 0.0 0.0 0.00 0.08 0.08 89 1016.5
20240723173058 73 90 0.0 0.0 0.00 0.08 0.08 91 1016.6
20240723172558 73 90 0.0 0.0 0.00 0.08 0.08 89 1016.6
20240723172058 72 90 0.0 0.0 0.00 0.08 0.08 88 1016.5
20240723171559 72 90 0.0 0.0 0.00 0.08 0.08 89 1016.7
20240723171057 72 91 0.0 0.0 0.01 0.08 0.08 90 1016.7
20240723170558 71 91 0.0 0.0 0.01 0.08 0.08 91 1016.8
20240723170058 71 90 0.0 0.0 0.01 0.08 0.08 91 1016.8
20240723165604 72 275 0.0 0.0 0.01 0.08 0.08 93 1016.9
20240723165559 71 275 0.0 0.0 0.01 0.08 0.08 93 1016.9
20240723164554 72 275 0.0 0.0 0.01 0.08 0.08 94 1016.9
20240723164055 71 107 0.0 0.0 0.01 0.08 0.08 94 1016.7
20240723163554 71 107 0.0 0.0 0.01 0.08 0.08 94 1016.8
20240723163052 71 93 0.0 0.0 0.01 0.08 0.08 94 1016.8
20240723162552 71 86 0.0 0.0 0.01 0.08 0.08 94 1016.7
20240723162057 70 99 0.0 0.0 0.01 0.08 0.08 94 1016.7
20240723162052 70 99 0.0 0.0 0.01 0.08 0.08 95 1016.7
20240723161050 70 117 0.0 0.0 0.00 0.07 0.07 94 1016.8
20240723160551 70 117 0.0 0.0 0.00 0.07 0.07 95 1016.9
20240723160055 70 117 0.0 0.0 0.00 0.07 0.07 95 1016.7
20240723160049 70 117 0.0 0.0 0.00 0.07 0.07 95 1016.8
20240723155051 70 117 0.0 0.0 0.00 0.07 0.07 95 1016.7
20240723154549 70 117 0.0 0.0 0.00 0.07 0.07 95 1016.6
20240723154049 69 118 0.0 0.0 0.00 0.07 0.07 95 1016.6
20240723153549 70 119 0.0 0.0 0.00 0.07 0.07 95 1016.7
20240723153050 70 119 0.0 0.0 0.00 0.07 0.07 95 1016.6
20240723152549 70 119 0.0 0.0 0.00 0.07 0.07 95 1016.6
20240723152050 70 119 0.0 0.0 0.00 0.07 0.07 95 1016.5
20240723151549 70 119 0.0 0.0 0.00 0.07 0.07 95 1016.5
20240723151055 70 119 0.0 0.0 0.00 0.07 0.07 95 1016.5
20240723151049 70 119 0.0 0.0 0.00 0.07 0.07 95 1016.5
20240723150050 70 102 0.0 0.0 0.00 0.07 0.07 95 1016.5
20240723145548 70 102 0.0 0.0 0.00 0.07 0.07 95 1016.3
20240723145052 70 98 0.0 0.0 0.00 0.07 0.07 95 1016.3
20240723145047 70 103 0.0 0.0 0.00 0.07 0.07 95 1016.3
20240723144048 70 98 0.0 0.0 0.00 0.07 0.07 95 1016.3
20240723143548 70 98 0.0 0.0 0.00 0.07 0.07 95 1016.3
20240723143055 70 98 0.0 0.0 0.01 0.07 0.07 96 1016.1
20240723143048 70 98 0.0 0.0 0.00 0.07 0.07 95 1016.2
20240723142046 70 98 0.0 0.0 0.01 0.07 0.07 95 1016.1
20240723141546 69 98 0.0 0.0 0.01 0.07 0.07 96 1016.1
20240723141047 69 243 0.0 0.0 0.01 0.07 0.07 96 1016.1
20240723140545 69 243 0.0 0.0 0.01 0.07 0.07 95 1016.0
20240723140053 69 227 0.0 0.0 0.02 0.07 0.07 95 1016.1
20240723140045 69 243 0.0 0.0 0.01 0.07 0.07 96 1016.1
20240723135547 69 227 0.0 0.0 0.01 0.07 0.07 95 1016.0
20240723134546 69 294 0.0 0.0 0.02 0.07 0.07 95 1016.1
20240723134045 69 294 0.0 0.0 0.02 0.07 0.07 96 1016.1
20240723133542 69 294 0.0 0.0 0.02 0.07 0.07 96 1016.1
20240723133045 69 294 0.0 0.0 0.02 0.07 0.07 96 1016.0
20240723132544 69 294 0.0 0.0 0.01 0.06 0.06 96 1016.0
20240723132043 69 294 0.0 0.0 0.01 0.06 0.06 96 1016.1
20240723131550 69 294 0.0 0.0 0.01 0.06 0.06 95 1015.9
20240723131543 69 294 0.0 0.0 0.01 0.06 0.06 96 1016.0
20240723130544 69 294 0.0 0.0 0.01 0.06 0.06 95 1015.8
20240723130043 69 294 0.0 0.0 0.02 0.06 0.06 95 1015.9
20240723125548 69 294 0.0 0.0 0.02 0.05 0.05 95 1015.8
20240723125544 69 294 0.0 0.0 0.02 0.06 0.06 96 1015.8
20240723124542 69 294 0.0 0.0 0.03 0.05 0.05 95 1015.8
20240723124048 69 290 0.0 0.0 0.03 0.05 0.05 95 1015.8
20240723124041 69 290 0.0 0.0 0.03 0.05 0.05 95 1015.8
20240723123543 69 290 0.0 0.0 0.03 0.05 0.05 95 1015.7
20240723122540 69 290 0.0 0.0 0.03 0.05 0.05 95 1015.7
20240723122044 69 290 0.0 0.0 0.04 0.05 0.05 95 1015.7
20240723122039 69 291 0.0 0.0 0.03 0.05 0.05 95 1015.7
20240723121040 70 251 0.0 0.0 0.04 0.05 0.05 95 1015.7
20240723120539 70 0 0.0 0.0 0.04 0.05 0.05 96 1015.7
20240723120039 70 0 0.0 0.0 0.03 0.04 0.05 96 1015.7
20240723115537 70 0 0.0 0.0 0.03 0.04 0.04 96 1015.6
20240723115038 70 0 0.0 0.0 0.02 0.03 0.03 96 1015.6
20240723114542 70 0 0.0 0.0 0.01 0.02 0.02 95 1015.6
20240723114538 70 0 0.0 0.0 0.01 0.02 0.02 96 1015.6
20240723113542 70 0 0.0 0.0 0.01 0.02 0.02 95 1015.6
20240723113537 70 0 0.0 0.0 0.01 0.02 0.02 95 1015.7
20240723112538 70 0 0.0 0.0 0.01 0.02 0.02 95 1015.6
20240723112037 70 0 0.0 0.0 0.01 0.02 0.02 96 1015.7
20240723111537 70 0 0.0 0.0 0.00 0.01 0.01 95 1015.8
20240723111037 70 124 0.0 0.0 0.00 0.01 0.01 95 1015.6
20240723110538 70 124 0.0 0.0 0.00 0.01 0.01 95 1015.7
20240723110037 70 131 0.0 0.0 0.00 0.01 0.01 95 1015.6
20240723105537 70 132 0.0 0.0 0.00 0.01 0.01 95 1015.6
20240723105037 70 132 0.0 0.0 0.00 0.01 0.01 95 1015.5
20240723104536 70 132 0.0 0.0 0.00 0.01 0.01 96 1015.5
20240723104037 70 11 0.0 0.0 0.00 0.01 0.01 96 1015.4
20240723103537 70 5 0.0 0.0 0.00 0.01 0.01 95 1015.4
20240723103038 70 5 0.0 0.0 0.00 0.01 0.01 95 1015.3
20240723102542 71 5 0.0 0.0 0.00 0.01 0.01 95 1015.2
20240723102536 70 5 0.0 0.0 0.00 0.01 0.01 95 1015.2
20240723101542 71 5 0.0 0.0 0.00 0.01 0.01 95 1015.3
20240723101538 71 5 0.0 0.0 0.00 0.01 0.01 95 1015.2
20240723101153 71 5 0.0 0.0 0.00 0.01 0.01 95 1015.3
20240723100036 71 5 0.0 0.0 0.00 0.01 0.01 95 1015.1
20240723095536 71 5 0.0 0.0 0.01 0.01 0.01 95 1015.1
20240723095036 71 5 0.0 0.0 0.01 0.01 0.01 95 1015.1
20240723094540 71 5 0.0 0.0 0.01 0.01 0.01 95 1015.0
20240723094535 71 5 0.0 0.0 0.01 0.01 0.01 95 1015.1
20240723094152 71 5 0.0 0.0 0.01 0.01 0.01 95 1015.1
20240723093651 71 5 0.0 0.0 0.01 0.01 0.01 95 1015.2
20240723092535 71 5 0.0 0.0 0.01 0.01 0.01 95 1015.2
20240723092043 71 5 0.0 0.0 0.01 0.01 0.01 95 1015.1
20240723092034 71 5 0.0 0.0 0.01 0.01 0.01 95 1015.2
20240723091537 71 5 0.0 0.0 0.01 0.01 0.01 95 1015.1
20240723090534 71 5 0.0 0.0 0.01 0.01 0.01 95 1015.1
20240723090036 71 5 0.0 0.0 0.01 0.01 0.01 95 1015.2
20240723085535 71 5 0.0 0.0 0.00 0.00 0.00 95 1015.3
20240723085035 71 5 0.0 0.0 0.00 0.00 0.00 95 1015.2
20240723084540 71 5 0.0 0.0 0.00 0.00 0.00 95 1015.3
20240723084533 71 5 0.0 0.0 0.00 0.00 0.00 95 1015.2
20240723083533 71 5 0.0 0.0 0.00 0.00 0.00 95 1015.3
20240723083033 71 5 0.0 0.0 0.00 0.00 0.00 95 1015.1
20240723082532 71 5 0.0 0.0 0.00 0.00 0.00 94 1015.1
20240723082032 71 5 0.0 0.0 0.00 0.00 0.00 94 1015.2
20240723081531 71 5 0.0 0.0 0.00 0.00 0.00 94 1015.2
20240723081030 71 5 0.0 0.0 0.00 0.00 0.00 94 1015.2
20240723080531 71 5 0.0 0.0 0.00 0.00 0.00 94 1015.1
20240723080031 71 5 0.0 0.0 0.00 0.00 0.00 94 1015.0
20240723075531 72 5 0.0 0.0 0.00 0.00 0.00 94 1015.1
20240723075030 72 5 0.0 0.0 0.00 0.00 0.00 94 1015.1
20240723074530 72 5 0.0 0.0 0.00 0.00 0.00 94 1015.0
20240723074030 72 5 0.0 0.0 0.00 0.00 0.00 94 1015.2
20240723073530 72 5 0.0 0.0 0.00 0.00 0.00 94 1015.2
20240723073033 72 5 0.0 0.0 0.00 0.00 0.00 94 1015.2
20240723073028 72 5 0.0 0.0 0.00 0.00 0.00 94 1015.1
20240723072028 72 5 0.0 0.0 0.00 0.00 0.00 94 1015.2
20240723071528 72 5 0.0 0.0 0.00 0.00 0.00 94 1015.2
20240723071029 72 5 0.0 0.0 0.00 0.00 0.00 94 1015.3
20240723070529 72 5 0.0 0.0 0.00 0.00 0.00 94 1015.2
20240723070029 72 5 0.0 0.0 0.00 0.00 0.00 94 1015.2
20240723065528 72 5 0.0 0.0 0.00 0.00 0.00 94 1015.3
20240723065029 72 5 0.0 0.0 0.00 0.00 0.00 94 1015.3
20240723064527 72 5 0.0 0.0 0.00 0.00 0.00 94 1015.3
20240723064031 72 5 0.0 0.0 0.00 0.00 0.00 94 1015.3
20240723064027 72 5 0.0 0.0 0.00 0.00 0.00 94 1015.4
20240723063027 72 5 0.0 0.0 0.00 0.00 0.00 94 1015.3
20240723062532 73 5 0.0 0.0 0.00 0.00 0.00 94 1015.3
20240723062526 72 5 0.0 0.0 0.00 0.00 0.00 94 1015.3
20240723062146 73 5 0.0 0.0 0.00 0.00 0.00 94 1015.4
20240723061026 73 5 0.0 0.0 0.00 0.00 0.00 94 1015.4
20240723060526 73 5 0.0 0.0 0.00 0.00 0.00 94 1015.5
20240723060030 73 5 0.0 0.0 0.00 0.00 0.00 94 1015.5
20240723060024 73 5 0.0 0.0 0.00 0.00 0.00 94 1015.6
20240723055022 73 5 0.0 0.0 0.00 0.00 0.00 94 1015.6
20240723054522 73 5 0.0 0.0 0.00 0.00 0.00 94 1015.5
20240723054022 73 5 0.0 0.0 0.00 0.00 0.00 94 1015.6
20240723053522 73 5 0.0 0.0 0.00 0.00 0.00 94 1015.6
20240723053023 73 5 0.0 0.0 0.00 0.00 0.00 94 1015.6
20240723052521 73 5 0.0 0.0 0.00 0.00 0.00 94 1015.7
20240723052028 73 5 0.0 0.0 0.00 0.00 0.00 94 1015.8
20240723052023 73 5 0.0 0.0 0.00 0.00 0.00 94 1015.7
20240723051024 73 5 0.0 0.0 0.00 0.00 0.00 94 1015.8
20240723050521 73 5 0.0 0.0 0.00 0.00 0.00 94 1015.9
20240723050022 73 5 0.0 0.0 0.00 0.00 0.00 94 1016.0
20240723045523 74 5 0.0 0.0 0.00 0.00 0.00 94 1016.0
20240723045023 74 5 0.0 0.0 0.00 0.00 0.00 94 1016.1
20240723044523 74 5 0.0 0.0 0.00 0.00 0.00 94 1016.2
20240723044021 74 5 0.0 0.0 0.00 0.00 0.00 94 1016.2
20240723043527 74 5 0.0 0.0 0.00 0.00 0.00 94 1016.5
20240723043520 74 5 0.0 0.0 0.00 0.00 0.00 94 1016.2
20240723043019 74 5 0.0 0.0 0.00 0.00 0.00 94 1016.5
20240723042019 74 5 0.0 0.0 0.00 0.00 0.00 93 1016.6
20240723041518 74 5 0.0 0.0 0.00 0.00 0.00 93 1016.6
20240723041025 74 5 0.0 0.0 0.00 0.00 0.00 93 1016.7
20240723041020 74 5 0.0 0.0 0.00 0.00 0.00 93 1016.6
20240723040018 74 5 0.0 0.0 0.00 0.00 0.00 93 1016.7
20240723035518 74 5 0.0 0.0 0.00 0.00 0.00 93 1016.7
20240723035019 74 5 0.0 0.0 0.00 0.00 0.00 93 1016.8
20240723034519 74 5 0.0 0.0 0.00 0.00 0.00 93 1016.7
20240723034024 74 5 0.0 0.0 0.00 0.00 0.00 93 1016.8
20240723034020 74 5 0.0 0.0 0.00 0.00 0.00 93 1016.8
20240723033019 74 5 0.0 0.0 0.00 0.00 0.00 92 1016.8
20240723032517 74 5 0.0 0.0 0.00 0.00 0.00 92 1016.8
20240723032018 74 5 0.0 0.0 0.00 0.00 0.00 92 1016.9
20240723031519 74 5 0.0 0.0 0.00 0.00 0.00 92 1016.9
20240723031022 74 5 0.0 0.0 0.00 0.00 0.00 92 1017.0
20240723031018 74 5 0.0 0.0 0.00 0.00 0.00 92 1017.0
20240723030022 74 5 0.0 0.0 0.00 0.00 0.00 92 1017.1
20240723030018 74 5 0.0 0.0 0.00 0.00 0.00 92 1017.1
20240723025017 74 5 0.0 0.0 0.00 0.00 0.00 92 1017.1
20240723025012 74 5 0.0 0.0 0.00 0.00 0.00 92 1017.1
20240723024616 74 5 0.0 0.0 0.00 0.00 0.00 92 1017.2
20240723023513 74 5 0.0 0.0 0.00 0.00 0.00 91 1017.0
20240723023011 75 5 0.0 0.0 0.00 0.00 0.00 91 1017.1
20240723022512 75 5 0.0 0.0 0.00 0.00 0.00 91 1017.1
20240723022013 75 5 0.0 0.0 0.00 0.00 0.00 91 1017.0
20240723021511 74 5 0.0 0.0 0.00 0.00 0.00 91 1017.0
20240723021129 74 5 0.0 0.0 0.00 0.00 0.00 90 1017.0
20240723021016 74 5 0.0 0.0 0.00 0.00 0.00 91 1017.1
20240723021010 74 5 0.0 0.0 0.00 0.00 0.00 91 1017.0
20240723020126 74 5 0.0 0.0 0.00 0.00 0.00 90 1017.1
20240723015011 74 5 0.0 0.0 0.00 0.00 0.00 90 1017.1
20240723014516 74 5 0.0 0.0 0.00 0.00 0.00 89 1017.0
20240723014511 74 5 0.0 0.0 0.00 0.00 0.00 89 1017.0
20240723013512 74 5 0.0 0.0 0.00 0.00 0.00 89 1017.0
20240723013010 74 5 0.0 0.0 0.00 0.00 0.00 88 1016.9
20240723012507 74 5 0.0 0.0 0.00 0.00 0.00 88 1016.9
20240723012007 74 5 0.0 0.0 0.00 0.00 0.00 87 1016.9
20240723011513 74 5 0.0 0.0 0.00 0.00 0.00 86 1016.7
20240723011507 74 5 0.0 0.0 0.00 0.00 0.00 87 1016.8
20240723011007 74 5 0.0 0.0 0.00 0.00 0.00 86 1016.8
20240723010008 74 5 0.0 0.0 0.00 0.00 0.00 85 1016.7
20240723005509 74 5 0.0 0.0 0.00 0.00 0.00 85 1016.7
20240723005008 74 5 0.0 0.0 0.00 0.00 0.00 84 1016.6
20240723004507 74 5 0.0 0.0 0.00 0.00 0.00 83 1016.6
20240723004008 74 5 0.0 0.0 0.00 0.00 0.00 83 1016.5
20240723003512 75 5 0.0 0.0 0.00 0.00 0.00 83 1016.2
20240723003506 74 5 0.0 0.0 0.00 0.00 0.00 83 1016.3
20240723002506 75 5 0.0 0.0 0.00 0.00 0.00 83 1016.2
20240723002006 75 5 0.0 0.0 0.00 0.00 0.00 83 1016.2
20240723001505 75 5 0.0 0.0 0.00 0.00 0.00 82 1016.1
20240723001010 76 5 0.0 0.0 0.00 0.00 0.00 81 1016.1
20240723001005 75 5 0.0 0.0 0.00 0.00 0.00 82 1016.1
20240723000005 76 5 0.0 0.0 0.00 0.00 0.00 81 1016.0
20240722235510 76 5 0.0 0.0 0.00 0.00 0.00 81 1016.1
20240722235506 76 5 0.0 0.0 0.00 0.00 0.00 80 1016.1
20240722234504 76 5 0.0 0.0 0.00 0.00 0.00 80 1016.0
20240722234003 77 5 0.0 0.0 0.00 0.00 0.00 79 1016.1
20240722233504 77 5 0.0 0.0 0.00 0.00 0.00 79 1016.1
20240722233118 77 5 0.0 0.0 0.00 0.00 0.00 79 1016.1
20240722233005 77 5 0.0 0.0 0.00 0.00 0.00 79 1016.1
20240722233001 77 5 0.0 0.0 0.00 0.00 0.00 80 1016.1
20240722232117 77 5 0.0 0.0 0.00 0.00 0.00 80 1016.1
20240722231003 78 11 0.0 0.0 0.00 0.00 0.00 80 1016.1
20240722230502 78 11 0.0 0.0 0.00 0.00 0.00 80 1016.2
20240722230002 78 13 0.0 0.0 0.00 0.00 0.00 80 1016.1
20240722225506 78 36 0.0 0.0 0.00 0.00 0.00 81 1016.2
20240722225502 78 36 0.0 0.0 0.00 0.00 0.00 80 1016.3
20240722224502 78 83 0.0 0.0 0.00 0.00 0.00 79 1016.1
20240722224002 78 126 0.0 0.0 0.00 0.00 0.00 81 1016.1
20240722223500 78 16 0.0 0.0 0.00 0.00 0.00 80 1016.1
20240722223000 78 5 0.0 0.0 0.00 0.00 0.00 80 1016.2
20240722222500 79 5 0.0 0.0 0.00 0.00 0.00 82 1016.1
20240722222006 79 5 0.0 0.0 0.00 0.00 0.00 81 1016.1
20240722222001 79 5 0.0 0.0 0.00 0.00 0.00 82 1016.1
20240722221003 79 9 0.0 0.0 0.00 0.00 0.00 81 1016.1
20240722220959 79 11 0.0 0.0 0.00 0.00 0.00 82 1016.2
20240722220457 79 5 0.0 0.0 0.00 0.00 0.00 81 1016.1
20240722220112 79 30 0.0 0.0 0.00 0.00 0.00 81 1016.2
20240722214958 79 32 0.0 0.0 0.00 0.00 0.00 79 1016.1
20240722214456 79 316 0.0 0.0 0.00 0.00 0.00 79 1016.1
20240722213958 79 0 0.0 0.0 0.00 0.00 0.00 79 1016.2
20240722213457 79 0 0.0 0.0 0.00 0.00 0.00 79 1016.2
20240722213003 80 44 0.0 0.0 0.00 0.00 0.00 78 1016.2
20240722212458 80 40 0.0 0.0 0.00 0.00 0.00 78 1016.1
20240722211457 80 15 0.0 0.0 0.00 0.00 0.00 78 1016.1
20240722211001 81 10 0.0 0.0 0.00 0.00 0.00 78 1016.2
20240722210957 80 11 0.0 0.0 0.00 0.00 0.00 79 1016.2
20240722210002 81 10 0.0 0.0 0.00 0.00 0.00 76 1016.1
20240722205956 81 10 0.0 0.0 0.00 0.00 0.00 77 1016.1
20240722204958 81 55 0.0 0.0 0.00 0.00 0.00 76 1016.2
20240722204456 81 55 0.0 0.0 0.00 0.00 0.00 76 1016.1
20240722203959 81 355 0.0 0.0 0.00 0.00 0.00 75 1016.2
20240722203458 82 355 0.0 0.0 0.00 0.00 0.00 75 1016.2
20240722202956 82 20 0.0 0.0 0.00 0.00 0.00 73 1016.2
20240722202456 82 67 0.0 0.0 0.00 0.00 0.00 73 1016.2
20240722201957 83 355 0.0 0.0 0.00 0.00 0.00 73 1016.3
20240722201458 83 338 0.0 0.0 0.00 0.00 0.00 73 1016.3
20240722200958 83 338 0.0 0.0 0.00 0.00 0.00 71 1016.5
20240722200457 83 338 0.0 0.0 0.00 0.00 0.00 73 1016.3
20240722195956 83 336 0.0 0.0 0.00 0.00 0.00 69 1016.5
20240722195454 83 0 0.0 0.0 0.00 0.00 0.00 70 1016.5
20240722194955 83 0 0.0 0.0 0.00 0.00 0.00 69 1016.3
20240722194455 84 0 0.0 0.0 0.00 0.00 0.00 70 1016.5
20240722194002 84 0 0.0 0.0 0.00 0.00 0.00 69 1016.3
20240722193956 84 0 0.0 0.0 0.00 0.00 0.00 71 1016.3
20240722192957 84 0 0.0 0.0 0.00 0.00 0.00 67 1016.3
20240722192455 84 346 0.0 0.0 0.00 0.00 0.00 71 1016.3
20240722191955 84 346 0.0 0.0 0.00 0.00 0.00 66 1016.5
20240722191454 84 355 0.0 0.0 0.00 0.00 0.00 72 1016.5
20240722190953 84 0 0.0 0.0 0.00 0.00 0.00 71 1016.6
20240722190453 84 0 0.0 0.0 0.00 0.00 0.00 69 1016.6
20240722185954 84 355 0.0 0.0 0.00 0.00 0.00 70 1016.6
20240722185453 84 355 0.0 0.0 0.00 0.00 0.00 71 1016.6
20240722184955 84 355 0.0 0.0 0.00 0.00 0.00 67 1016.7
20240722184453 84 355 0.0 0.0 0.00 0.00 0.00 65 1016.7
20240722183952 84 345 0.0 0.0 0.00 0.00 0.00 69 1016.7
20240722183453 85 346 0.0 0.0 0.00 0.00 0.00 71 1016.7
20240722182954 85 346 0.0 0.0 0.00 0.00 0.00 71 1016.8
20240722182453 85 338 0.0 0.0 0.00 0.00 0.00 69 1016.8
20240722181952 85 340 0.0 0.0 0.00 0.00 0.00 72 1016.8
20240722181451 85 340 0.0 0.0 0.00 0.00 0.00 66 1016.8